Regional Weather Roundup
Issued by NWS

Home | Current Version | Previous Version | Graphics & Text | Print | Product List | Glossary On
Versions: 1 2 3 4 5 6 7 8 9 10 11 12 13 14 15 16 17 18 19 20 21 22 23 24 25 26 27 28 29 30 31 32 33 34 35 36 37 38 39 40 41 42 43 44 45 46 47 48 49 50
000
ASUS45 KBOU 300107
RWRCO

WEATHER ROUNDUP FOR COLORADO
NATIONAL WEATHER SERVICE DENVER/BOULDER CO
700 PM MDT SUN MAY 29 2016

NOTE: "FAIR" INDICATES FEW OR NO CLOUDS BELOW 12000 FEET WITH NO
SIGNIFICANT WEATHER AND/OR OBSTRUCTIONS TO VISIBILITY.

COZ001>005-013-030-031-300200-
...NORTHWEST COLORADO...

CITY           SKY/WX    TMP DP  RH WIND       PRES   REMARKS
CRAIG          CLOUDY    60  43  53 N14       30.18R
HAYDEN         FAIR      61  37  41 NE7       30.16F
MEEKER         FAIR      66  34  30 CALM      30.15S
MOUNT WERNER   NOT AVBL
STEAMBOAT SPGS FAIR      61  37  40 NW8       30.18F
WALDEN         NOT AVBL
$$

COZ006>008-011-300200-
...WEST CENTRAL VALLEYS...

CITY           SKY/WX    TMP DP  RH WIND       PRES   REMARKS
GRAND JUNCTION FAIR      74  29  19 S10       30.02F
MONTROSE       FAIR      70  33  25 E5        30.11F
EAGLE          FAIR      66  32  28 W5        30.17S
RIFLE          FAIR      68  36  30 W5        30.10F
DELTA          FAIR      75  31  19 E6        30.07F
NUCLA          FAIR      72  27  18 E9        30.12F
$$

COZ017>023-064>068-300200-
...SOUTHWEST COLORADO...

CITY           SKY/WX    TMP DP  RH WIND       PRES   REMARKS
DURANGO        FAIR      75  15  10 W13G20    30.09S
CORTEZ         FAIR      76  21  12 SW7       30.05F
PAGOSA SPRINGS FAIR      68  17  14 CALM      30.19S
TELLURIDE      FAIR      56  27  32 NW3       30.32S
WOLF CREEK PAS FAIR      45  18  33 SW13G18   30.47F
$$

COZ009-010-012-014-032>034-037-058>063-300200-
...CENTRAL COLORADO...

CITY           SKY/WX    TMP DP  RH WIND       PRES   REMARKS
ASPEN          FAIR      62  30  29 CALM      30.21F
BUENA VISTA    FAIR      60  27  28 SE3       30.23S
COPPER MTN     NOT AVBL
BERTHOUD PASS  CLOUDY    34  27  75 W16G23    30.47F WCI  23
COTTONWOOD PAS FAIR      57  21  24 SW10      30.34S
GUNNISON       FAIR      63  28  27 CALM      30.26S
KREMMLING      FAIR      61  32  33 S8        30.24R
LEADVILLE      FAIR      52  24  33 NW8G17    30.33F
MONARCH PASS   FAIR      41  27  56 MISG      30.56S
SALIDA         NOT AVBL
SUNLIGHT       FAIR      48  32  53 W3        30.42F
WILKERSON PASS FAIR      46  23  39 SW7       30.43S
$$

COZ069>075-300200-
...SAN LUIS VALLEY/SANGRE DE CRISTO MOUNTAINS...

CITY           SKY/WX    TMP DP  RH WIND       PRES   REMARKS
ALAMOSA        FAIR      64  30  27 NW10      30.18F
LA VETA PASS   FAIR      54  21  28 CALM      30.35S
SAGUACHE       FAIR      63  32  31 NW16      30.23S
$$

COZ035-036-038>040-300200-
...NORTHERN COLORADO FRONT RANGE...

CITY           SKY/WX    TMP DP  RH WIND       PRES   REMARKS
DENVER INTL AP PTSUNNY   61  44  53 N10       30.11S
DMNS CITY PARK   N/A     67  35  31 E9        30.08F
AURORA         PTSUNNY   63  43  47 N10       30.13R
FRONT RANGE AP PTSUNNY   59  45  58 N20G26    30.12R
ERIE MUNI ARPT FAIR      61  44  53 NW9       30.09S
BOULDER MUN AP FAIR      64  41  42 W3        30.09R
CENTENNIAL     PTSUNNY   65  41  41 N14       30.13R
BROOMFIELD     PTSUNNY   63  43  48 S7        30.11F
FORT COLLINS   FAIR      43  43 100 S10       30.09R
LONGMONT       FAIR      66  45  45 SE7       30.11R
$$

COZ041-046-047-076>085-087-088-300200-
...PIKES PEAK/PALMER DIVIDE AND SOUTHERN FOOTHILLS...

CITY           SKY/WX    TMP DP  RH WIND       PRES   REMARKS
COLO. SPRINGS  PTSUNNY   64  39  39 N12       30.12F
A. F. ACADEMY  FAIR      61  39  44 NW7       30.13S
SCHRIEVER AFB  NOT AVBL
ELLICOTT       FAIR     N/A N/A N/A N7        30.11R
FALCON         FAIR      60  38  44 NW3       30.17F
FORT CARSON    SUNNY     68  43  40 N9        30.08S
LIMON          FAIR      64  53  67 CALM      30.08S
MONUMENT HILL  FAIR      59  37  44 SW7       30.18F
TRINIDAD       FAIR      75  31  19 S12       30.07R
$$

COZ042>045-048>051-090-091-300200-
...NORTHEAST COLORADO...

CITY           SKY/WX    TMP DP  RH WIND       PRES   REMARKS
GREELEY ARPT   FAIR      64  45  48 S12       30.07R
AKRON          FAIR      72  51  47 SW6       30.03R
BURLINGTON     FAIR      64  50  60 SE22      30.04R
WRAY           FAIR      70  52  52 SE24G31   30.00R
STERLING       FAIR      73  52  46 CALM      29.98S
HOLYOKE        NOT AVBL
FORT MORGAN    DRIZZLE   68  42  39 W18G24    30.06R
$$

COZ086-089-092>099-300200-
...SOUTHEAST COLORADO...

CITY           SKY/WX    TMP DP  RH WIND       PRES   REMARKS
PUEBLO         FAIR      77  41  27 CALM      30.01R
LA JUNTA       FAIR      73  45  36 S17       30.03R
LAMAR          FAIR      71  43  36 S29G46    29.97R
SPRINGFIELD      N/A     62  52  69 SE17      30.10F
$$



USA.gov is the U.S. government's official web portal to all federal, state and local government web resources and services.